Hourly Weather Luki

Today, 7 May, Friday

Time Temperature Precipitation Wind Pressure Humidity
00:00 +1°C° 0 mm 4 mps 737 mmHg 82%
01:00 +1°C° 0 mm 3 mps 738 mmHg 84%
02:00 +1°C° 0 mm 3 mps 738 mmHg 86%
03:00 +1°C° 0 mm 3 mps 738 mmHg 85%
04:00 +1°C° 0 mm 3 mps 738 mmHg 84%
05:00 +1°C° 0 mm 4 mps 738 mmHg 83%
06:00 +3°C° 0.1 mm 4 mps 738 mmHg 79%
07:00 +5°C° 0.1 mm 5 mps 738 mmHg 76%
08:00 +7°C° 0.1 mm 5 mps 738 mmHg 73%
09:00 +8°C° 0.2 mm 6 mps 738 mmHg 70%
10:00 +9°C° 0.2 mm 6 mps 738 mmHg 66%
11:00 +10°C° 0.2 mm 7 mps 738 mmHg 63%
12:00 +11°C° 0.2 mm 6 mps 738 mmHg 62%
13:00 +11°C° 0.2 mm 6 mps 738 mmHg 61%
14:00 +11°C° 0.2 mm 6 mps 737 mmHg 59%
15:00 +11°C° 0.2 mm 6 mps 737 mmHg 64%
16:00 +10°C° 0.2 mm 5 mps 737 mmHg 69%
17:00 +10°C° 0.2 mm 4 mps 737 mmHg 74%
18:00 +8°C° 1 mm 5 mps 736 mmHg 80%
19:00 +7°C° 1 mm 5 mps 736 mmHg 87%
20:00 +6°C° 1 mm 5 mps 736 mmHg 93%
21:00 +7°C° 0.5 mm 4 mps 735 mmHg 94%
22:00 +7°C° 0.5 mm 4 mps 734 mmHg 95%
23:00 +7°C° 0.5 mm 4 mps 734 mmHg 96%

Tomorrow, 8 May, Saturday

Time Temperature Precipitation Wind Pressure Humidity
00:00 +7°C° 0 mm 3 mps 734 mmHg 95%
01:00 +7°C° 0 mm 3 mps 734 mmHg 95%
02:00 +7°C° 0 mm 3 mps 733 mmHg 95%
03:00 +7°C° 0 mm 2 mps 733 mmHg 96%
04:00 +6°C° 0 mm 2 mps 733 mmHg 96%
05:00 +6°C° 0 mm 2 mps 733 mmHg 96%
06:00 +7°C° 0.1 mm 3 mps 734 mmHg 93%
07:00 +7°C° 0.1 mm 3 mps 734 mmHg 90%
08:00 +6°C° 0.1 mm 4 mps 734 mmHg 87%
09:00 +7°C° 0.1 mm 5 mps 734 mmHg 83%
10:00 +7°C° 0.1 mm 5 mps 735 mmHg 78%
11:00 +7°C° 0.1 mm 6 mps 735 mmHg 74%
12:00 +7°C° 0.2 mm 6 mps 735 mmHg 73%
13:00 +7°C° 0.2 mm 6 mps 736 mmHg 72%
14:00 +6°C° 0.2 mm 7 mps 736 mmHg 71%
15:00 +6°C° 0.1 mm 7 mps 737 mmHg 70%
16:00 +5°C° 0.1 mm 7 mps 738 mmHg 69%
17:00 +5°C° 0.1 mm 8 mps 738 mmHg 68%
18:00 +4°C° 0 mm 6 mps 739 mmHg 71%
19:00 +2°C° 0 mm 5 mps 739 mmHg 74%
20:00 +2°C° 0 mm 3 mps 740 mmHg 77%
21:00 +2°C° 0 mm 3 mps 740 mmHg 78%
22:00 +1°C° 0 mm 4 mps 741 mmHg 79%
23:00 +1°C° 0 mm 4 mps 741 mmHg 80%

Day after tomorrow, 9 May, Sunday

Time Temperature Precipitation Wind Pressure Humidity
00:00 0°C° 0 mm 4 mps 742 mmHg 85%
01:00 0°C° 0 mm 4 mps 743 mmHg 90%
02:00 0°C° 0 mm 3 mps 743 mmHg 94%
03:00 0°C° 0 mm 3 mps 744 mmHg 94%
04:00 0°C° 0 mm 3 mps 744 mmHg 93%
05:00 0°C° 0 mm 3 mps 745 mmHg 93%
06:00 +2°C° 0 mm 3 mps 746 mmHg 83%
07:00 +3°C° 0 mm 3 mps 746 mmHg 74%
08:00 +5°C° 0 mm 3 mps 747 mmHg 64%
09:00 +7°C° 0 mm 3 mps 747 mmHg 59%
10:00 +9°C° 0 mm 3 mps 748 mmHg 53%
11:00 +10°C° 0 mm 3 mps 748 mmHg 48%
12:00 +10°C° 0 mm 3 mps 748 mmHg 46%
13:00 +11°C° 0 mm 3 mps 748 mmHg 45%
14:00 +11°C° 0 mm 3 mps 749 mmHg 43%
15:00 +11°C° 0 mm 3 mps 749 mmHg 45%
16:00 +12°C° 0 mm 2 mps 749 mmHg 46%
17:00 +12°C° 0 mm 2 mps 749 mmHg 48%
18:00 +10°C° 0 mm 2 mps 749 mmHg 53%
19:00 +8°C° 0 mm 2 mps 750 mmHg 59%
20:00 +6°C° 0 mm 2 mps 750 mmHg 64%
21:00 +5°C° 0 mm 3 mps 750 mmHg 66%
22:00 +4°C° 0 mm 3 mps 750 mmHg 68%
23:00 +4°C° 0 mm 3 mps 751 mmHg 70%

10 May, Monday

Time Temperature Precipitation Wind Pressure Humidity
00:00 +3°C° 0 mm 3 mps 751 mmHg 72%
01:00 +3°C° 0 mm 3 mps 751 mmHg 75%
02:00 +3°C° 0 mm 3 mps 752 mmHg 77%
03:00 +3°C° 0 mm 3 mps 752 mmHg 78%
04:00 +3°C° 0 mm 3 mps 752 mmHg 79%
05:00 +3°C° 0 mm 3 mps 752 mmHg 79%
06:00 +5°C° 0 mm 3 mps 752 mmHg 75%
07:00 +8°C° 0 mm 3 mps 753 mmHg 70%
08:00 +10°C° 0 mm 4 mps 753 mmHg 65%
09:00 +11°C° 0 mm 4 mps 753 mmHg 62%
10:00 +12°C° 0 mm 4 mps 753 mmHg 59%
11:00 +14°C° 0 mm 4 mps 753 mmHg 56%
12:00 +14°C° 0 mm 4 mps 753 mmHg 54%
13:00 +15°C° 0 mm 4 mps 753 mmHg 53%
14:00 +15°C° 0 mm 4 mps 753 mmHg 51%
15:00 +15°C° 0 mm 4 mps 753 mmHg 55%
16:00 +16°C° 0 mm 3 mps 753 mmHg 58%
17:00 +16°C° 0 mm 3 mps 752 mmHg 61%
18:00 +13°C° 0 mm 3 mps 752 mmHg 66%
19:00 +11°C° 0 mm 3 mps 753 mmHg 72%
20:00 +9°C° 0 mm 3 mps 753 mmHg 77%
21:00 +9°C° 0 mm 3 mps 753 mmHg 77%
22:00 +8°C° 0 mm 3 mps 753 mmHg 76%
23:00 +7°C° 0 mm 3 mps 753 mmHg 75%

11 May, Tuesday

Time Temperature Precipitation Wind Pressure Humidity
00:00 +7°C° 0 mm 3 mps 753 mmHg 75%
01:00 +5°C° 0 mm 3 mps 753 mmHg 75%
02:00 +5°C° 0 mm 3 mps 753 mmHg 76%
03:00 +5°C° 0 mm 3 mps 753 mmHg 77%
04:00 +5°C° 0 mm 3 mps 753 mmHg 78%
05:00 +5°C° 0 mm 3 mps 753 mmHg 79%
06:00 +8°C° 0 mm 3 mps 753 mmHg 74%
07:00 +10°C° 0 mm 3 mps 753 mmHg 69%
08:00 +12°C° 0 mm 4 mps 753 mmHg 64%
09:00 +13°C° 0 mm 4 mps 753 mmHg 59%
10:00 +14°C° 0 mm 4 mps 753 mmHg 55%
11:00 +17°C° 0 mm 4 mps 753 mmHg 50%
12:00 +17°C° 0 mm 4 mps 752 mmHg 49%
13:00 +18°C° 0 mm 4 mps 752 mmHg 48%
14:00 +18°C° 0 mm 4 mps 752 mmHg 47%
15:00 +18°C° 0 mm 4 mps 751 mmHg 51%
16:00 +18°C° 0 mm 4 mps 751 mmHg 55%
17:00 +18°C° 0 mm 3 mps 751 mmHg 58%
18:00 +16°C° 0 mm 3 mps 751 mmHg 65%
19:00 +13°C° 0 mm 3 mps 750 mmHg 71%
20:00 +11°C° 0 mm 3 mps 750 mmHg 77%
21:00 +10°C° 0 mm 3 mps 750 mmHg 78%
22:00 +10°C° 0 mm 3 mps 750 mmHg 80%
23:00 +9°C° 0 mm 3 mps 750 mmHg 81%

12 May, Wednesday

Time Temperature Precipitation Wind Pressure Humidity
00:00 +9°C° 0 mm 3 mps 750 mmHg 85%
01:00 +9°C° 0 mm 3 mps 750 mmHg 88%
02:00 +9°C° 0 mm 3 mps 750 mmHg 91%
03:00 +9°C° 0 mm 3 mps 749 mmHg 91%
04:00 +9°C° 0 mm 3 mps 749 mmHg 91%
05:00 +9°C° 0 mm 2 mps 749 mmHg 91%
06:00 +11°C° 0 mm 3 mps 749 mmHg 85%
07:00 +13°C° 0 mm 4 mps 749 mmHg 79%
08:00 +15°C° 0 mm 5 mps 749 mmHg 73%
09:00 +16°C° 0 mm 5 mps 748 mmHg 70%
10:00 +19°C° 0 mm 6 mps 748 mmHg 67%
11:00 +20°C° 0 mm 6 mps 748 mmHg 64%
12:00 +19°C° 0 mm 6 mps 747 mmHg 66%
13:00 +19°C° 0 mm 6 mps 747 mmHg 69%
14:00 +17°C° 0 mm 6 mps 747 mmHg 72%
15:00 +17°C° 0 mm 6 mps 747 mmHg 74%
16:00 +16°C° 0 mm 6 mps 747 mmHg 77%
17:00 +15°C° 0 mm 6 mps 746 mmHg 79%
18:00 +15°C° 0 mm 6 mps 746 mmHg 82%
19:00 +14°C° 0 mm 5 mps 746 mmHg 84%
20:00 +13°C° 0 mm 5 mps 746 mmHg 87%
21:00 +12°C° 0 mm 4 mps 746 mmHg 89%
22:00 +12°C° 0 mm 3 mps 746 mmHg 91%
23:00 +11°C° 0 mm 3 mps 746 mmHg 93%
Show more

We Need Your Consent

Meteoprog and our Service Providers may store and access personal data such as cookies, device identifiers or other similar technologies on your device and process such data to personalise content and ads, as well as provide social media features and to analyse the traffic.

  • Store and/or access information on your device

    Cookies, device identifiers or other information can be stored or accessed on your device for the purposes indicated above.

  • Personalised ads and content, ad and content measurement, audience insights, and products development

    Ads and content can be personalised based on a profile. More data can be added to better personalise ads and content. Ad and content performance can be measured. Insights about the audience who saw the ads and content can be derived. Such data can be used to develop or improve user’s experience, systems and software.

By clicking ‘I Agree’ you will allow the use of indicated cookies, device identifiers, web beacons or other similar technologies. Your settings can be changed in the browser on your device.

For certain purposes, legitimate interests may be relied on, rather than consent. You can read more about this in our Privacy and Cookie Policy.